When you browse on this site, cookies collect data to enhance your experience and personalize the content and advertising you see.
Visit our Privacy Policy to learn more. By continuing to use the site, you agree to this use of cookies and data.
  • în România
  • Lista ţărilor
  • Pe 7 zile
  • Temperatura apei
  • Hartă satelitară
  • Meteo pe hartă
  • Widget-uri
  • user-avatar
    Intrare

    Meteo pe oră la Golub-Dobrzyń

    Astăzi, 22 Mai, Miercuri

    Timp Temperatura Precipitaţii Vânt Presiune Umiditate
    00:00 +15°C° 0 mm 2 m/s 746 mmHg 95%
    01:00 +15°C° 0 mm 2 m/s 746 mmHg 95%
    02:00 +14°C° 0 mm 2 m/s 746 mmHg 95%
    03:00 +14°C° 0 mm 2 m/s 746 mmHg 95%
    04:00 +13°C° 0 mm 2 m/s 746 mmHg 95%
    05:00 +14°C° 0 mm 2 m/s 746 mmHg 90%
    06:00 +16°C° 0 mm 3 m/s 746 mmHg 85%
    07:00 +17°C° 0 mm 3 m/s 747 mmHg 80%
    08:00 +18°C° 0 mm 3 m/s 747 mmHg 74%
    09:00 +19°C° 0 mm 3 m/s 747 mmHg 68%
    10:00 +21°C° 0 mm 3 m/s 747 mmHg 62%
    11:00 +21°C° 0 mm 3 m/s 747 mmHg 60%
    12:00 +22°C° 0 mm 3 m/s 747 mmHg 59%
    13:00 +24°C° 0 mm 3 m/s 747 mmHg 57%
    14:00 +24°C° 0.1 mm 3 m/s 747 mmHg 58%
    15:00 +24°C° 0.1 mm 3 m/s 747 mmHg 59%
    16:00 +24°C° 0.1 mm 3 m/s 747 mmHg 60%
    17:00 +21°C° 0.4 mm 3 m/s 747 mmHg 67%
    18:00 +20°C° 0.4 mm 2 m/s 748 mmHg 73%
    19:00 +20°C° 0.4 mm 1 m/s 748 mmHg 80%
    20:00 +18°C° 0.1 mm 2 m/s 748 mmHg 84%
    21:00 +17°C° 0.1 mm 2 m/s 749 mmHg 87%
    22:00 +16°C° 0.1 mm 2 m/s 749 mmHg 90%
    23:00 +14°C° 0.2 mm 3 m/s 749 mmHg 92%

    Mâine, 23 Mai, Joi

    Timp Temperatura Precipitaţii Vânt Presiune Umiditate
    00:00 +14°C° 0.2 mm 3 m/s 749 mmHg 95%
    01:00 +14°C° 0.2 mm 4 m/s 750 mmHg 97%
    02:00 +14°C° 0.3 mm 4 m/s 750 mmHg 96%
    03:00 +14°C° 0.3 mm 4 m/s 750 mmHg 96%
    04:00 +14°C° 0.3 mm 4 m/s 750 mmHg 96%
    05:00 +14°C° 0.2 mm 4 m/s 751 mmHg 94%
    06:00 +14°C° 0.2 mm 4 m/s 751 mmHg 93%
    07:00 +14°C° 0.2 mm 4 m/s 751 mmHg 92%
    08:00 +15°C° 0 mm 4 m/s 752 mmHg 90%
    09:00 +15°C° 0 mm 4 m/s 752 mmHg 89%
    10:00 +15°C° 0 mm 5 m/s 752 mmHg 87%
    11:00 +15°C° 0 mm 5 m/s 752 mmHg 85%
    12:00 +15°C° 0 mm 5 m/s 752 mmHg 83%
    13:00 +15°C° 0 mm 5 m/s 753 mmHg 81%
    14:00 +16°C° 0 mm 5 m/s 753 mmHg 78%
    15:00 +16°C° 0 mm 5 m/s 753 mmHg 75%
    16:00 +16°C° 0 mm 6 m/s 753 mmHg 72%
    17:00 +15°C° 0 mm 5 m/s 753 mmHg 74%
    18:00 +15°C° 0 mm 4 m/s 753 mmHg 75%
    19:00 +14°C° 0 mm 3 m/s 753 mmHg 76%
    20:00 +13°C° 0 mm 3 m/s 753 mmHg 71%
    21:00 +12°C° 0 mm 3 m/s 754 mmHg 66%
    22:00 +11°C° 0 mm 4 m/s 754 mmHg 60%
    23:00 +10°C° 0 mm 3 m/s 754 mmHg 66%

    Poimâine, 24 Mai, Vineri

    Timp Temperatura Precipitaţii Vânt Presiune Umiditate
    00:00 +9°C° 0 mm 3 m/s 754 mmHg 72%
    01:00 +7°C° 0 mm 3 m/s 754 mmHg 78%
    02:00 +7°C° 0 mm 3 m/s 754 mmHg 82%
    03:00 +7°C° 0 mm 3 m/s 754 mmHg 87%
    04:00 +7°C° 0 mm 3 m/s 754 mmHg 91%
    05:00 +9°C° 0 mm 3 m/s 754 mmHg 87%
    06:00 +11°C° 0 mm 3 m/s 754 mmHg 82%
    07:00 +12°C° 0 mm 4 m/s 754 mmHg 78%
    08:00 +14°C° 0 mm 4 m/s 753 mmHg 74%
    09:00 +17°C° 0 mm 4 m/s 753 mmHg 69%
    10:00 +18°C° 0 mm 4 m/s 753 mmHg 65%
    11:00 +19°C° 0 mm 4 m/s 753 mmHg 63%
    12:00 +19°C° 0 mm 4 m/s 753 mmHg 62%
    13:00 +20°C° 0 mm 3 m/s 753 mmHg 60%
    14:00 +20°C° 0.2 mm 3 m/s 752 mmHg 62%
    15:00 +20°C° 0.2 mm 4 m/s 752 mmHg 64%
    16:00 +20°C° 0.2 mm 4 m/s 752 mmHg 66%
    17:00 +18°C° 0.2 mm 3 m/s 751 mmHg 72%
    18:00 +17°C° 0.2 mm 3 m/s 751 mmHg 79%
    19:00 +16°C° 0.2 mm 3 m/s 751 mmHg 85%
    20:00 +15°C° 0 mm 2 m/s 751 mmHg 86%
    21:00 +14°C° 0 mm 2 m/s 751 mmHg 88%
    22:00 +13°C° 0 mm 2 m/s 751 mmHg 90%
    23:00 +13°C° 0 mm 2 m/s 751 mmHg 91%

    25 Mai, Sâmbătă

    Timp Temperatura Precipitaţii Vânt Presiune Umiditate
    00:00 +12°C° 0 mm 2 m/s 751 mmHg 92%
    01:00 +12°C° 0 mm 2 m/s 750 mmHg 92%
    02:00 +12°C° 0 mm 2 m/s 750 mmHg 93%
    03:00 +11°C° 0 mm 3 m/s 750 mmHg 93%
    04:00 +11°C° 0 mm 3 m/s 750 mmHg 93%
    05:00 +11°C° 0 mm 3 m/s 750 mmHg 89%
    06:00 +12°C° 0 mm 4 m/s 750 mmHg 84%
    07:00 +13°C° 0 mm 4 m/s 750 mmHg 80%
    08:00 +13°C° 0 mm 5 m/s 750 mmHg 77%
    09:00 +14°C° 0 mm 5 m/s 751 mmHg 74%
    10:00 +14°C° 0 mm 6 m/s 751 mmHg 71%
    11:00 +14°C° 0 mm 5 m/s 751 mmHg 73%
    12:00 +13°C° 0 mm 5 m/s 751 mmHg 74%
    13:00 +13°C° 0 mm 5 m/s 751 mmHg 75%
    14:00 +13°C° 0.1 mm 5 m/s 751 mmHg 77%
    15:00 +13°C° 0.1 mm 5 m/s 751 mmHg 78%
    16:00 +12°C° 0.1 mm 5 m/s 751 mmHg 80%
    17:00 +12°C° 0 mm 4 m/s 751 mmHg 81%
    18:00 +12°C° 0 mm 4 m/s 751 mmHg 82%
    19:00 +11°C° 0 mm 4 m/s 750 mmHg 84%
    20:00 +11°C° 0 mm 4 m/s 750 mmHg 84%
    21:00 +11°C° 0 mm 4 m/s 750 mmHg 85%
    22:00 +11°C° 0 mm 4 m/s 750 mmHg 85%
    23:00 +11°C° 0 mm 4 m/s 750 mmHg 86%

    26 Mai, Duminică

    Timp Temperatura Precipitaţii Vânt Presiune Umiditate
    00:00 +10°C° 0 mm 4 m/s 750 mmHg 87%
    01:00 +9°C° 0 mm 5 m/s 749 mmHg 88%
    02:00 +9°C° 0.1 mm 5 m/s 749 mmHg 89%
    03:00 +9°C° 0.1 mm 5 m/s 749 mmHg 90%
    04:00 +10°C° 0.1 mm 4 m/s 749 mmHg 92%
    05:00 +9°C° 0.1 mm 5 m/s 749 mmHg 89%
    06:00 +9°C° 0.1 mm 6 m/s 749 mmHg 86%
    07:00 +9°C° 0.1 mm 6 m/s 749 mmHg 84%
    08:00 +9°C° 0.2 mm 6 m/s 749 mmHg 83%
    09:00 +9°C° 0.2 mm 7 m/s 749 mmHg 82%
    10:00 +9°C° 0.2 mm 7 m/s 749 mmHg 82%
    11:00 +10°C° 0.2 mm 7 m/s 748 mmHg 81%
    12:00 +10°C° 0.2 mm 7 m/s 748 mmHg 80%
    13:00 +10°C° 0.2 mm 7 m/s 748 mmHg 79%
    14:00 +10°C° 0.1 mm 7 m/s 748 mmHg 78%
    15:00 +10°C° 0.1 mm 6 m/s 748 mmHg 78%
    16:00 +10°C° 0.1 mm 6 m/s 748 mmHg 78%
    17:00 +10°C° 0.1 mm 6 m/s 748 mmHg 78%
    18:00 +9°C° 0.1 mm 5 m/s 748 mmHg 79%
    19:00 +9°C° 0.1 mm 5 m/s 748 mmHg 80%
    20:00 +9°C° 0 mm 5 m/s 748 mmHg 80%
    21:00 +10°C° 0 mm 4 m/s 748 mmHg 80%
    22:00 +8°C° 0 mm 4 m/s 749 mmHg 81%
    23:00 +7°C° 0 mm 4 m/s 749 mmHg 85%

    27 Mai, Luni

    Timp Temperatura Precipitaţii Vânt Presiune Umiditate
    00:00 +7°C° 0 mm 4 m/s 749 mmHg 89%
    01:00 +6°C° 0 mm 4 m/s 749 mmHg 92%
    02:00 +5°C° 0 mm 4 m/s 749 mmHg 93%
    03:00 +5°C° 0 mm 4 m/s 749 mmHg 94%
    04:00 +5°C° 0 mm 3 m/s 749 mmHg 95%
    05:00 +6°C° 0 mm 4 m/s 749 mmHg 89%
    06:00 +8°C° 0 mm 4 m/s 750 mmHg 84%
    07:00 +11°C° 0 mm 4 m/s 750 mmHg 78%
    08:00 +12°C° 0 mm 4 m/s 750 mmHg 78%
    09:00 +13°C° 0 mm 4 m/s 749 mmHg 79%
    10:00 +14°C° 0 mm 5 m/s 749 mmHg 79%
    11:00 +15°C° 0.1 mm 5 m/s 749 mmHg 80%
    12:00 +15°C° 0.1 mm 5 m/s 748 mmHg 80%
    13:00 +16°C° 0.1 mm 6 m/s 748 mmHg 81%
    14:00 +17°C° 0.6 mm 6 m/s 747 mmHg 82%
    15:00 +17°C° 0.6 mm 6 m/s 747 mmHg 82%
    16:00 +17°C° 0.6 mm 7 m/s 747 mmHg 83%
    17:00 +16°C° 0.1 mm 5 m/s 747 mmHg 85%
    18:00 +17°C° 0.1 mm 4 m/s 747 mmHg 87%
    19:00 +16°C° 0.1 mm 2 m/s 748 mmHg 89%
    20:00 +15°C° 0 mm 2 m/s 748 mmHg 91%
    21:00 +13°C° 0 mm 3 m/s 749 mmHg 93%
    22:00 +11°C° 0 mm 3 m/s 749 mmHg 95%
    23:00 +10°C° 0 mm 3 m/s 750 mmHg 96%
    Arată mai mult